Wind_Speed
11 11 12 11 11 11 10 9 7 6 5 4 4 4 3 2 2 1 2 2 1 2 2 4 6 8 2 5 5 2 4 6 5 5 4 5 7 3 6 5 6 9 12 13 7 8 7
13 12 12 12 12 11 11 10 8 7 5 4 3 3 3 2 1 0 1 2 2 2 3 5 7 7 4 2 3 1 2 3 4 6 3 6 6 6 6 7 6 7 10 13 13 15 12
15 14 14 14 13 13 13 12 10 8 5 3 3 2 1 1 1 2 3 3 3 3 4 5 6 4 6 5 1 0 2 2 4 5 5 5 7 6 8 7 5 7 12 13 16 15 7
14 15 15 15 14 14 13 13 11 7 5 3 2 1 1 1 2 3 3 4 4 4 4 4 5 4 3 1 1 1 2 3 2 2 3 4 6 6 3 8 6 6 8 4 5 4 5
15 15 15 15 15 14 13 12 9 6 3 3 2 2 2 2 2 3 3 4 4 3 3 3 5 5 5 2 1 3 3 5 4 3 3 4 4 3 3 5 6 7 5 9 8 6 2
16 16 16 15 15 15 14 13 10 6 4 2 2 2 2 2 2 2 2 2 3 2 2 3 6 4 2 3 2 2 1 2 3 5 7 4 4 4 6 5 5 11 12 12 12 8 11
17 17 17 17 17 17 16 14 10 6 4 3 3 2 2 2 2 2 5 2 4 3 2 3 4 3 5 3 1 2 2 5 4 5 4 3 3 6 9 7 8 8 11 13 13 13 12
18 18 18 18 18 19 19 17 12 6 4 3 2 1 1 1 2 4 5 5 5 4 4 2 3 4 2 2 2 4 3 4 1 6 5 5 7 5 6 5 5 8 13 14 12 10 13
19 20 20 21 21 22 22 19 13 6 3 2 2 0 1 5 7 2 3 6 4 5 4 3 2 4 2 5 3 6 5 5 6 6 5 5 9 3 4 6 11 11 12 10 13 15 14
20 21 21 21 22 23 23 19 14 8 3 1 2 1 7 8 1 4 4 4 4 3 4 5 3 3 3 0 2 2 5 3 3 4 7 8 5 2 7 10 10 9 9 11 12 11 4
21 22 23 23 23 23 22 18 14 11 6 4 5 3 8 1 2 0 2 4 3 2 3 2 4 1 2 2 1 3 2 3 6 10 4 5 8 6 7 8 10 6 9 13 15 13 11
23 23 24 24 24 23 23 20 10 12 8 6 6 7 8 1 3 1 2 2 2 3 1 4 2 2 5 4 4 1 0 1 7 8 9 12 9 4 2 9 8 9 11 17 17 8 5
22 23 24 25 25 25 22 20 12 7 9 11 7 5 2 2 2 3 2 4 3 3 2 4 2 3 4 5 1 4 3 10 6 8 5 11 1 6 7 9 2 9 11 4 2 2 5
20 21 23 25 26 27 24 19 14 1 4 7 6 7 6 6 2 2 3 4 4 3 6 1 1 4 3 7 4 5 7 5 12 9 5 6 2 4 5 3 6 12 5 4 5 4 8
20 22 24 27 28 29 28 23 15 1 4 1 1 3 4 7 3 1 4 3 5 6 4 5 5 5 5 3 4 5 6 4 6 10 7 6 2 6 8 4 4 8 4 4 5 9 10
21 24 26 27 28 30 31 28 20 3 5 2 5 4 3 6 2 4 3 4 4 5 5 4 4 3 4 5 5 5 1 4 3 7 8 4 7 8 6 3 6 5 3 2 3 5 5
22 24 25 27 28 30 32 32 20 6 4 2 4 2 6 6 3 4 3 5 5 5 6 7 4 2 3 4 4 4 6 5 4 7 9 5 3 2 12 3 8 5 6 7 5 6 4
22 24 25 27 29 31 32 33 23 10 3 3 5 0 9 8 3 3 4 3 2 3 4 5 4 6 5 4 3 2 3 5 4 6 5 5 4 5 8 9 7 4 7 8 1 5 4
22 23 25 27 28 31 32 33 23 14 5 4 2 2 6 5 1 5 6 5 6 2 6 3 3 5 4 3 3 1 5 7 5 6 6 7 2 5 4 4 4 2 3 3 8 4 15
21 22 24 26 28 30 33 34 27 15 6 4 2 1 2 4 4 10 8 6 4 5 4 4 3 1 3 2 3 2 3 4 6 3 3 2 4 6 5 10 14 15 13 14 14 10 16
19 21 22 24 26 29 32 34 30 15 7 4 3 2 1 2 4 6 5 3 7 3 2 1 3 3 3 2 4 5 1 5 4 7 2 3 6 9 11 14 16 18 19 18 17 18 18
17 19 21 22 24 26 29 33 33 16 10 7 3 1 3 3 2 6 2 3 4 4 1 5 2 4 1 3 3 6 9 7 6 4 1 2 4 9 12 16 16 18 18 19 19 20 21
14 17 19 20 22 24 26 29 32 28 14 7 5 1 3 1 1 4 2 5 5 3 3 3 2 2 5 4 7 7 8 8 9 8 7 5 3 5 4 7 17 14 4 6 13 16 13
12 13 16 18 20 21 23 25 28 27 25 10 7 5 3 3 3 3 4 4 6 2 2 3 1 2 4 6 10 10 11 12 12 11 9 7 6 3 7 12 4 4 14 14 17 18 16
11 11 12 14 16 18 20 21 23 22 20 18 13 6 3 1 3 3 5 4 4 4 2 2 1 1 6 4 3 4 3 4 8 12 12 11 6 4 3 5 17 19 5 14 18 16 11
11 10 10 11 12 14 15 17 18 19 16 11 19 11 4 3 0 4 6 5 3 5 6 5 3 4 1 2 1 1 2 4 3 5 7 8 10 7 5 5 6 3 18 11 7 15 6
11 9 9 8 9 9 11 12 14 15 15 11 10 15 3 3 2 1 3 4 3 2 2 4 7 4 2 2 2 2 2 2 3 3 3 4 5 10 10 10 10 10 7 13 8 13 21
14 11 9 8 8 6 5 7 9 11 13 12 7 14 8 3 2 3 2 2 2 2 2 4 2 3 4 2 1 2 2 1 3 4 3 3 3 3 5 8 12 2 17 13 18 19 20
15 16 13 12 13 10 6 1 3 5 7 10 5 12 11 5 3 4 8 12 8 5 2 4 3 2 2 3 2 1 2 3 3 3 5 4 7 3 5 6 13 18 18 17 18 12 13
Wind_Direction
31 32 33 33 31 35 37 36 38 43 56 73 90 95 99 111 133 159 204 228 250 286 334 339 342 344 336 218 77 4 22 345 355 321 5 335 278 335 259 316 309 258 268 278 315 306 277
34 35 34 30 28 27 29 28 28 23 33 63 92 103 105 111 119 176 251 263 281 303 327 335 342 341 260 202 78 62 7 341 3 334 5 339 356 337 290 289 293 325 316 294 284 273 271
30 30 30 28 25 21 19 18 16 22 40 54 66 90 123 155 211 246 258 266 275 288 309 325 340 355 268 78 74 340 359 4 347 353 337 20 339 310 344 284 347 302 288 283 268 258 216
32 27 23 20 19 17 14 10 9 21 26 33 30 352 295 259 258 263 266 268 271 280 292 313 327 311 62 171 163 298 286 271 316 318 325 336 336 288 266 331 296 253 252 291 254 124 127
29 25 23 20 17 13 8 5 1 360 5 355 341 319 297 286 283 280 284 284 281 284 300 324 318 253 103 124 131 2 329 334 323 274 291 294 293 293 282 249 288 232 266 293 320 65 94
30 25 23 20 16 12 6 0 354 337 304 276 263 259 256 253 248 254 277 193 142 107 340 266 274 259 150 75 43 300 21 310 304 301 251 235 228 242 225 244 288 327 321 313 306 318 310
30 26 22 19 15 12 6 358 349 331 303 271 238 250 267 270 234 206 133 175 200 187 30 16 29 97 93 106 218 153 339 289 256 244 272 136 299 267 8 14 336 311 293 290 294 301 305
26 23 22 20 16 12 6 1 355 337 303 277 258 245 257 223 176 168 226 277 49 353 110 80 151 104 54 286 235 130 311 279 268 290 318 247 236 57 346 315 298 290 285 286 286 340 343
26 24 21 20 18 14 12 10 11 6 329 264 233 247 159 146 142 161 52 54 359 348 240 97 32 65 26 292 34 50 321 343 274 287 279 290 311 67 335 316 300 297 297 314 319 323 292
26 24 22 22 19 18 19 18 18 22 34 127 156 117 154 141 172 152 65 2 357 354 217 139 174 107 196 9 140 2 11 334 270 315 343 275 84 356 315 306 322 312 355 336 313 315 295
24 23 25 25 22 19 22 24 30 29 45 106 133 117 158 62 345 55 7 342 328 264 244 344 97 46 157 312 17 116 356 280 295 319 326 280 344 5 309 320 344 279 330 297 279 270 285
23 24 26 25 24 21 17 22 32 38 58 97 125 113 142 140 78 60 332 301 243 229 113 103 77 350 236 57 78 24 324 127 275 291 253 258 271 280 2 316 268 294 297 297 272 248 257
22 22 23 23 22 19 17 17 21 44 73 80 100 126 54 4 46 326 326 235 229 287 228 94 42 355 316 18 78 14 8 51 31 344 19 309 43 90 27 332 316 356 340 305 304 150 220
23 21 20 20 21 20 18 13 14 87 97 66 81 89 73 35 327 328 255 240 263 55 48 76 338 273 23 357 112 329 318 147 47 354 300 338 217 166 67 41 323 297 262 287 301 324 321
25 22 21 21 21 20 19 14 5 2 190 65 63 135 78 342 341 12 261 246 30 23 354 343 250 256 129 133 335 318 82 51 45 20 359 341 268 358 10 32 344 9 347 346 295 276 270
25 23 22 21 19 19 19 17 14 47 177 237 317 150 50 339 326 255 254 79 96 30 338 294 339 354 343 38 321 1 68 44 63 33 343 40 296 295 121 313 252 228 72 11 304 279 273
22 22 20 21 19 19 19 19 25 55 147 206 272 224 355 347 287 236 2 63 105 44 2 357 9 318 58 9 333 321 69 70 39 5 312 335 234 295 333 276 351 322 301 291 260 243 267
20 19 16 19 19 20 20 19 21 30 114 324 286 256 347 352 237 26 67 68 357 33 18 43 43 30 15 3 316 330 14 70 53 334 334 45 314 289 273 312 27 320 295 277 226 280 330
17 15 15 16 19 20 21 20 21 21 28 334 356 44 7 320 306 102 115 91 55 53 26 38 70 20 18 355 329 51 21 122 84 21 28 10 261 304 148 118 182 37 14 297 248 260 261
11 13 13 14 16 18 19 20 20 23 44 19 294 226 84 49 337 121 135 128 110 30 67 42 61 338 341 275 131 325 304 119 124 235 85 177 261 253 267 293 306 298 300 293 287 280 287
8 7 11 14 16 16 18 19 21 30 45 30 359 60 1 50 56 81 77 133 135 127 89 340 132 57 40 288 309 253 73 302 222 123 198 233 269 276 284 300 302 293 289 282 274 276 271
3 3 5 12 16 17 17 20 22 28 44 61 5 359 92 76 323 120 169 95 133 133 275 143 258 131 286 260 299 291 320 298 273 183 240 212 275 311 289 280 276 289 286 284 276 274 273
357 360 3 7 14 17 18 21 24 33 55 55 23 30 277 179 248 265 51 129 130 133 96 14 4 307 278 354 348 317 309 290 276 283 289 287 280 321 261 319 311 287 282 343 312 303 313
347 356 360 2 9 15 18 21 26 37 50 49 26 307 299 101 299 49 137 126 137 104 33 132 186 271 53 334 299 262 241 245 246 248 236 254 278 287 289 308 253 248 325 329 324 316 311
330 343 353 358 2 11 16 21 26 34 43 41 18 359 358 38 45 136 151 138 118 120 207 261 192 25 21 301 288 326 172 231 235 223 219 216 241 280 273 281 284 276 278 334 308 307 308
313 323 337 348 353 4 12 15 22 29 37 47 28 19 341 333 34 33 169 189 220 199 153 186 114 33 311 272 339 1 290 16 321 324 195 209 207 224 266 281 271 279 324 327 338 296 341
289 296 309 323 334 350 5 12 15 23 29 40 27 21 323 318 100 267 204 200 194 324 319 127 157 184 244 243 237 235 265 98 245 255 210 226 236 236 249 255 263 271 6 337 304 296 317
280 277 278 285 294 307 341 4 12 16 27 45 36 21 19 323 264 243 276 236 87 283 250 101 141 194 186 238 280 238 204 253 299 260 266 222 245 240 254 262 268 13 328 320 299 308 304
271 270 266 262 268 272 260 280 9 13 26 50 23 2 348 271 312 318 270 257 279 327 349 154 357 148 232 219 214 34 275 215 231 260 206 246 214 214 219 242 290 309 300 304 301 319 326
Height
822 820 818 817 815 813 812 810 810 809 808 808 808 807 807 807 808 808 809 809 809 809 808 808 807 805 805 804 804 805 805 805 803 803 801 798 796 795 803 793 792 796 791 783 779 782 782
824 822 820 818 816 814 813 811 810 809 808 808 808 808 808 809 809 809 809 809 809 809 809 808 807 805 805 804 806 806 805 805 805 803 801 799 798 797 801 797 800 789 791 789 783 780 778
826 824 821 819 817 815 812 811 810 808 808 808 808 808 808 808 809 809 810 809 809 809 808 808 807 806 804 808 806 806 806 806 805 804 802 801 801 800 797 799 788 790 800 789 778 772 776
829 827 824 821 819 816 814 812 809 808 808 808 808 808 808 809 809 809 809 809 809 809 808 808 807 807 806 806 805 806 806 805 805 804 803 803 801 800 799 793 793 796 794 805 771 770 776
831 829 826 823 821 818 815 813 810 809 808 808 808 808 808 809 809 809 809 809 808 808 807 807 806 805 807 805 805 806 806 804 804 803 803 801 801 800 797 808 808 792 808 796 784 767 775
833 830 828 825 822 819 816 813 811 810 809 808 808 808 808 808 808 808 808 807 807 807 807 808 807 810 805 806 806 806 805 805 803 801 800 800 800 806 804 806 825 812 808 799 803 782 777
835 831 828 825 822 819 817 814 811 809 809 808 808 808 807 807 808 808 807 808 810 809 805 809 807 805 803 806 806 805 805 803 801 801 807 799 814 814 806 803 803 805 808 806 792 777 781
836 833 830 827 823 819 815 811 809 807 807 807 807 807 807 807 807 808 808 804 808 811 812 807 807 806 807 807 805 804 805 806 803 810 798 806 816 802 800 799 805 805 807 802 785 777 786
838 835 831 827 823 819 815 811 808 806 805 806 807 807 807 808 808 809 808 809 809 809 807 810 807 806 808 807 807 807 806 803 806 808 801 810 799 797 803 805 806 803 804 800 804 791 785
840 836 832 829 825 820 815 811 808 806 805 805 806 807 808 808 811 808 809 810 810 810 812 819 810 808 807 807 812 808 807 809 803 808 807 806 796 802 806 807 801 814 796 802 803 808 813
842 837 833 830 826 822 818 813 809 807 805 805 806 807 808 810 809 808 812 810 810 811 824 814 811 807 805 808 809 810 808 806 813 810 811 810 803 807 814 809 805 812 800 804 801 804 805
843 839 835 831 827 823 818 814 812 810 808 807 808 808 810 810 810 811 810 810 811 820 827 819 810 813 809 807 808 806 807 808 805 812 806 807 794 800 809 803 801 799 801 798 789 797 818
846 841 837 833 828 824 819 815 812 811 810 809 809 810 810 810 810 810 810 810 818 821 811 822 821 816 815 819 813 815 817 828 834 836 820 807 800 804 806 813 799 807 816 823 806 817 813
849 845 840 836 831 826 821 816 813 812 811 811 811 811 812 811 810 810 810 811 822 816 822 818 820 818 821 824 820 820 821 828 837 838 833 826 820 811 808 817 825 820 821 832 835 818 815
851 847 842 837 832 827 822 817 812 810 811 812 812 811 812 812 810 811 811 816 833 826 828 830 820 821 824 825 828 821 832 838 847 846 850 839 821 807 811 815 820 818 827 828 835 822 826
853 849 844 840 835 830 824 819 813 810 812 812 811 810 812 811 810 811 812 827 835 835 834 828 826 828 827 830 830 828 825 848 848 850 846 843 853 819 816 817 813 823 821 840 837 842 829
854 850 846 842 837 832 826 820 815 813 813 813 812 807 812 810 811 809 816 832 840 838 836 837 834 832 835 840 839 836 836 856 854 853 850 848 851 831 825 823 829 831 833 831 833 838 842
856 853 849 845 840 834 828 822 817 815 814 814 809 809 812 811 810 807 825 832 843 842 838 840 840 842 842 844 844 842 841 850 860 859 857 855 861 856 835 823 826 832 835 833 848 843 844
859 855 852 847 843 837 831 826 820 817 816 814 811 813 813 810 817 828 837 844 844 844 848 844 848 850 849 849 853 847 848 860 862 863 865 864 857 862 833 836 831 833 833 836 839 845 845
861 858 854 850 845 840 834 828 822 819 817 817 814 818 816 814 813 821 831 839 851 852 852 851 852 851 852 850 850 853 853 856 861 864 866 869 866 861 863 851 845 845 841 839 842 850 840
863 860 857 853 848 843 838 831 825 821 819 819 819 833 832 829 830 827 828 834 845 850 852 852 856 855 859 857 852 851 854 855 855 863 864 865 864 855 850 846 847 845 842 838 840 837 841
865 862 859 856 852 847 842 836 830 825 823 824 826 829 831 835 833 830 841 839 840 851 851 853 855 856 859 861 859 863 861 862 861 858 861 861 867 860 858 848 844 839 832 829 826 823 818
866 864 861 859 855 851 847 842 837 831 826 830 834 834 834 846 835 833 840 841 846 849 856 855 857 860 859 859 863 862 864 863 862 864 865 866 864 865 862 844 845 844 819 816 815 815 813
868 865 863 861 859 855 852 848 845 841 838 841 844 841 834 839 838 840 844 846 849 851 853 856 861 864 865 865 863 859 859 859 859 860 862 863 863 865 864 855 860 816 811 813 814 812 809
868 866 865 863 861 859 856 854 852 849 847 848 847 846 842 836 837 846 848 848 852 857 860 859 859 863 865 865 860 855 851 853 846 848 852 858 866 872 874 859 836 818 813 817 814 806 807
868 867 866 864 863 861 860 858 856 854 853 852 851 849 846 844 841 841 847 848 848 851 857 859 863 866 867 863 860 876 854 848 853 850 842 848 853 863 859 875 867 810 810 808 811 817 803
866 866 865 865 864 862 861 860 859 858 857 855 856 853 851 848 845 846 847 848 848 847 850 854 860 865 867 859 859 860 854 851 860 850 846 850 853 858 854 855 832 809 810 809 827 817 800
864 864 864 864 863 861 860 860 860 860 859 858 860 858 858 853 847 849 849 849 851 852 848 858 860 862 863 863 859 855 860 851 856 845 846 854 859 854 846 852 845 804 807 822 809 797 796
862 862 862 861 861 861 860 857 858 860 860 859 862 862 862 860 850 849 849 850 851 851 851 855 853 853 854 857 854 857 862 860 859 860 837 850 836 844 841 830 807 807 808 803 801 798 797